STARLINK D

Last updated on Wed Apr 23 2025 00:02:06 GMT+0000 (Coordinated Universal Time)

1 63572U 25076D 25112.75002315 -.00706381 16262-3 -19183-2 0 9998 2 63572 43.0022 346.1969 0002148 256.6155 320.3687 15.93222842 2536

Satellite not in orbit